Weather History for Harbor Springs, MI

Change the Weather History Date:

Friday, January 4, 2013

  Actual Average (KPLN) Record (KPLN)
Temperature  
Mean Temperature 32 °F -  
Max Temperature 35 °F 27 °F 48 °F (2007)
Min Temperature 28 °F 12 °F -35 °F (1981)
Degree Days  
Heating Degree Days 34    
Moisture  
Dew Point 24 °F    
Average Humidity 79    
Maximum Humidity 87    
Minimum Humidity 65    
Precipitation  
Precipitation 0.00 in - - ()
Sea Level Pressure  
Sea Level Pressure 29.88 in    
Wind  
Wind Speed 18 mph (WSW)    
Max Wind Speed 25 mph    
Max Gust Speed 44 mph    
Visibility 10 miles    
Events      
Averages and records for this station are not official NWS values.
T = Trace of Precipitation, MM = Missing Value Source: NWS Daily Summary

Daily Weather History Graph

Daily Weather History Graph

Search for Another Location

Airport:

Trip Planner

Search our weather history database for the weather conditions in past years. The results will help you decide how hot, cold, wet, or windy it might be!

Date:

Astronomy

Jan. 04, 2013 Rise Set
Actual Time 8:19 AM EST 5:10 PM EST
Civil Twilight 7:45 AM EST 5:44 PM EST
Nautical Twilight 7:08 AM EST 6:21 PM EST
Astronomical Twilight 6:32 AM EST 6:57 PM EST
Moon 12:05 AM EST (1/4) 11:39 AM EST (1/4)
Length of Visible Light 9h 58m
Length of Day
8h 51m
Waning Gibbous, 55% of the Moon is Illuminated
Jan 4
Waning Gibbous
Jan 4
Last Quarter
Jan 11
New
Jan 18
First Quarter
Jan 26
Full

Hourly Weather History & Observations

Time (EST) Temp. Windchill Dew Point Humidity Pressure Visibility Wind Dir Wind Speed Gust Speed Precip Events Conditions
12:14 AM 28.2 °F 14.8 °F 22.6 °F 80% 29.90 in 10.0 mi WSW 20.7 mph 33.4 mph N/A   Overcast
12:35 AM 28.2 °F 14.8 °F 22.8 °F 80% 29.89 in 10.0 mi SW 20.7 mph 33.4 mph N/A   Overcast
12:55 AM 28.4 °F 16.2 °F 23.2 °F 81% 29.87 in 10.0 mi SW 17.3 mph 32.2 mph N/A   Overcast
1:14 AM 28.2 °F 15.2 °F 23.2 °F 81% 29.86 in 10.0 mi SW 19.6 mph 28.8 mph N/A   Overcast
1:35 AM 28.0 °F 14.6 °F 23.0 °F 81% 29.84 in 10.0 mi SW 20.7 mph 31.1 mph N/A   Mostly Cloudy
1:54 AM 28.0 °F 16.5 °F 22.6 °F 80% 29.84 in 10.0 mi SW 15.0 mph 26.5 mph N/A   Scattered Clouds
2:35 AM 28.0 °F 16.5 °F 23.0 °F 81% 29.82 in 10.0 mi SW 15.0 mph 23.0 mph N/A   Scattered Clouds
2:54 AM 28.0 °F 15.7 °F 22.6 °F 80% 29.82 in 10.0 mi SW 17.3 mph 25.3 mph N/A   Scattered Clouds
3:15 AM 28.0 °F 13.9 °F 22.6 °F 80% 29.82 in 10.0 mi SW 23.0 mph 29.9 mph N/A   Scattered Clouds
3:35 AM 28.2 °F 15.2 °F 22.6 °F 80% 29.82 in 10.0 mi SW 19.6 mph 28.8 mph N/A   Mostly Cloudy
3:54 AM 28.4 °F 15.4 °F 22.6 °F 79% 29.82 in 10.0 mi SW 19.6 mph 33.4 mph N/A   Overcast
4:15 AM 28.8 °F 15.5 °F 23.0 °F 79% 29.81 in 10.0 mi WSW 20.7 mph 31.1 mph N/A   Overcast
4:34 AM 29.7 °F 16.1 °F 24.4 °F 81% 29.80 in 10.0 mi WSW 23.0 mph 33.4 mph N/A   Overcast
4:54 AM 30.6 °F 16.7 °F 25.5 °F 82% 29.80 in 10.0 mi SW 25.3 mph 43.7 mph N/A   Overcast
5:15 AM 30.6 °F 17.3 °F 25.3 °F 81% 29.80 in 10.0 mi WSW 23.0 mph 36.8 mph N/A   Overcast
5:54 AM 29.8 °F 16.6 °F 23.7 °F 78% 29.81 in 10.0 mi WSW 21.9 mph 32.2 mph N/A   Overcast
6:34 AM 28.4 °F 15.8 °F 22.6 °F 79% 29.82 in 10.0 mi WSW 18.4 mph 32.2 mph N/A   Overcast
6:54 AM 28.4 °F 16.6 °F 22.5 °F 78% 29.83 in 10.0 mi WSW 16.1 mph 34.5 mph N/A   Overcast
7:15 AM 28.2 °F 16.8 °F 22.5 °F 79% 29.83 in 10.0 mi WSW 15.0 mph 26.5 mph N/A   Overcast
7:34 AM 28.0 °F 14.9 °F 22.6 °F 80% 29.83 in 10.0 mi WSW 19.6 mph 28.8 mph N/A   Overcast
8:15 AM 28.2 °F 16.3 °F 23.2 °F 81% 29.83 in 10.0 mi WSW 16.1 mph 29.9 mph N/A   Overcast
8:34 AM 28.2 °F 16.3 °F 22.3 °F 78% 29.83 in 10.0 mi WSW 16.1 mph 25.3 mph N/A   Overcast
8:54 AM 28.2 °F 15.5 °F 22.1 °F 78% 29.83 in 10.0 mi WSW 18.4 mph 27.6 mph N/A   Overcast
9:15 AM 28.2 °F 16.3 °F 22.1 °F 78% 29.83 in 10.0 mi WSW 16.1 mph 25.3 mph N/A   Overcast
9:34 AM 28.2 °F 14.8 °F 22.3 °F 78% 29.83 in 10.0 mi WSW 20.7 mph 28.8 mph N/A   Overcast
9:54 AM 28.2 °F 16.8 °F 22.6 °F 80% 29.84 in 10.0 mi WSW 15.0 mph 25.3 mph N/A   Overcast
10:15 AM 28.2 °F 15.2 °F 23.0 °F 81% 29.84 in 10.0 mi WSW 19.6 mph 26.5 mph N/A   Overcast
10:34 AM 28.2 °F 15.5 °F 23.0 °F 81% 29.85 in 10.0 mi WSW 18.4 mph 28.8 mph N/A   Overcast
10:55 AM 28.2 °F 15.2 °F 23.0 °F 81% 29.85 in 10.0 mi SW 19.6 mph 28.8 mph N/A   Overcast
11:14 AM 28.0 °F 14.9 °F 23.0 °F 81% 29.85 in 10.0 mi SW 19.6 mph 31.1 mph N/A   Overcast
11:34 AM 28.0 °F 14.6 °F 23.0 °F 81% 29.85 in 10.0 mi SW 20.7 mph 27.6 mph N/A   Overcast
11:55 AM 28.0 °F 14.9 °F 23.2 °F 82% 29.84 in 10.0 mi WSW 19.6 mph 28.8 mph N/A   Overcast
12:14 PM 28.0 °F 15.3 °F 23.2 °F 82% 29.84 in 10.0 mi SW 18.4 mph 27.6 mph N/A   Overcast
12:34 PM 28.0 °F 15.7 °F 23.2 °F 82% 29.84 in 10.0 mi SW 17.3 mph 26.5 mph N/A   Overcast
12:55 PM 28.0 °F 14.6 °F 23.5 °F 83% 29.83 in 10.0 mi SW 20.7 mph 26.5 mph N/A   Overcast
1:14 PM 28.0 °F 15.7 °F 23.4 °F 83% 29.83 in 10.0 mi WSW 17.3 mph 27.6 mph N/A   Overcast
1:34 PM 28.0 °F 15.3 °F 23.4 °F 83% 29.83 in 10.0 mi WSW 18.4 mph 27.6 mph N/A   Overcast
1:55 PM 28.0 °F 14.9 °F 23.7 °F 84% 29.84 in 10.0 mi SW 19.6 mph 27.6 mph N/A   Overcast
2:14 PM 28.0 °F 15.3 °F 23.9 °F 84% 29.84 in 10.0 mi WSW 18.4 mph 26.5 mph N/A   Overcast
2:34 PM 28.0 °F 15.7 °F 23.9 °F 84% 29.84 in 10.0 mi SW 17.3 mph 25.3 mph N/A   Overcast
2:55 PM 28.0 °F 16.5 °F 24.3 °F 86% 29.84 in 10.0 mi SW 15.0 mph 21.9 mph N/A   Overcast
3:14 PM 28.0 °F 17.0 °F 24.4 °F 86% 29.86 in 10.0 mi WSW 13.8 mph 23.0 mph N/A   Overcast
3:34 PM 28.0 °F 17.0 °F 24.4 °F 86% 29.86 in 10.0 mi SW 13.8 mph 20.7 mph N/A   Overcast
3:55 PM 28.0 °F 16.1 °F 24.6 °F 87% 29.87 in 10.0 mi SW 16.1 mph 21.9 mph N/A   Overcast
4:14 PM 28.8 °F 15.9 °F 25.3 °F 87% 29.87 in 10.0 mi SW 19.6 mph 26.5 mph N/A   Overcast
4:34 PM 30.2 °F 19.8 °F 26.6 °F 86% 29.88 in 10.0 mi SW 13.8 mph 23.0 mph N/A   Overcast
4:55 PM 30.6 °F 19.8 °F 26.6 °F 85% 29.88 in 10.0 mi SW 15.0 mph 25.3 mph N/A   Overcast
5:14 PM 31.1 °F 20.5 °F 27.0 °F 85% 29.89 in 10.0 mi SW 15.0 mph 25.3 mph N/A   Overcast
5:34 PM 32.9 °F 22.0 °F 29.3 °F 87% 29.89 in 10.0 mi SW 17.3 mph 24.2 mph N/A   Overcast
5:55 PM 32.9 °F 22.8 °F 28.9 °F 85% 29.90 in 10.0 mi SW 15.0 mph 24.2 mph N/A   Overcast
6:14 PM 32.9 °F 23.2 °F 28.9 °F 85% 29.91 in 10.0 mi SW 13.8 mph 20.7 mph N/A   Overcast
6:34 PM 32.9 °F 22.8 °F 29.1 °F 86% 29.92 in 10.0 mi SW 15.0 mph 21.9 mph N/A   Overcast
6:55 PM 32.9 °F 22.8 °F 29.1 °F 86% 29.93 in 10.0 mi WSW 15.0 mph 20.7 mph N/A   Mostly Cloudy
7:14 PM 33.8 °F 23.9 °F 28.6 °F 81% 29.94 in 10.0 mi WSW 15.0 mph 26.5 mph N/A   Mostly Cloudy
7:35 PM 35.2 °F 27.6 °F 30.6 °F 83% 29.95 in 10.0 mi West 10.4 mph 17.3 mph N/A   Mostly Cloudy
7:54 PM 35.2 °F 27.1 °F 27.0 °F 72% 29.96 in 10.0 mi West 11.5 mph 17.3 mph N/A   Mostly Cloudy
8:14 PM 35.2 °F 26.6 °F 24.6 °F 65% 29.97 in 10.0 mi West 12.7 mph 21.9 mph N/A   Overcast
8:35 PM 33.8 °F 24.3 °F 23.9 °F 67% 29.98 in 10.0 mi NW 13.8 mph 23.0 mph N/A   Mostly Cloudy
8:54 PM 32.9 °F 24.1 °F 22.3 °F 65% 29.99 in 10.0 mi WNW 11.5 mph 23.0 mph N/A   Scattered Clouds
9:14 PM 32.9 °F 24.7 °F 22.1 °F 65% 29.99 in 10.0 mi WNW 10.4 mph 21.9 mph N/A   Clear
9:35 PM 32.9 °F 24.1 °F 23.5 °F 68% 29.99 in 10.0 mi West 11.5 mph - N/A   Clear
9:54 PM 32.9 °F 25.3 °F 24.3 °F 71% 30.00 in 10.0 mi WNW 9.2 mph - N/A   Clear
10:14 PM 32.9 °F 22.8 °F 24.3 °F 71% 30.01 in 10.0 mi NW 15.0 mph 20.7 mph N/A   Clear
10:35 PM 32.9 °F 24.7 °F 23.9 °F 69% 30.03 in 10.0 mi NW 10.4 mph - N/A   Scattered Clouds
10:54 PM 32.9 °F 23.2 °F 24.3 °F 71% 30.04 in 10.0 mi WNW 13.8 mph 18.4 mph N/A   Mostly Cloudy
11:14 PM 32.7 °F 26.4 °F 23.4 °F 68% 30.05 in 10.0 mi NW 6.9 mph 21.9 mph N/A   Overcast
11:35 PM 31.1 °F 21.4 °F 21.0 °F 66% 30.06 in 10.0 mi WNW 12.7 mph 16.1 mph N/A   Overcast
11:54 PM 31.1 °F 23.7 °F 20.7 °F 65% 30.07 in 10.0 mi WNW 8.1 mph 16.1 mph N/A   Overcast